Météo par heure à Aarle

Ce jour, 14 Avril, Mercredi

Heure Température Précipitation Vent Pression Humidité
00:00 +2°C° 0 mm 1 m/s 772 mmHg 74%
01:00 +1°C° 0 mm 0 m/s 772 mmHg 75%
02:00 +1°C° 0 mm 0 m/s 772 mmHg 75%
03:00 +1°C° 0 mm 0 m/s 772 mmHg 76%
04:00 +1°C° 0 mm 0 m/s 772 mmHg 75%
05:00 +2°C° 0 mm 0 m/s 772 mmHg 74%
06:00 +2°C° 0 mm 0 m/s 772 mmHg 72%
07:00 +5°C° 0.1 mm 1 m/s 772 mmHg 67%
08:00 +6°C° 0.1 mm 1 m/s 772 mmHg 62%
09:00 +8°C° 0.1 mm 1 m/s 772 mmHg 57%
10:00 +7°C° 0.1 mm 2 m/s 771 mmHg 53%
11:00 +8°C° 0.1 mm 2 m/s 771 mmHg 49%
12:00 +9°C° 0 mm 3 m/s 771 mmHg 45%
13:00 +9°C° 0.1 mm 3 m/s 771 mmHg 46%
14:00 +9°C° 0.1 mm 3 m/s 770 mmHg 46%
15:00 +8°C° 0.1 mm 4 m/s 770 mmHg 47%
16:00 +7°C° 0.2 mm 4 m/s 770 mmHg 55%
17:00 +5°C° 0.2 mm 4 m/s 770 mmHg 64%
18:00 +4°C° 0.2 mm 4 m/s 770 mmHg 72%
19:00 +3°C° 0 mm 4 m/s 771 mmHg 75%
20:00 +3°C° 0 mm 3 m/s 771 mmHg 79%
21:00 +2°C° 0 mm 3 m/s 771 mmHg 82%
22:00 +1°C° 0 mm 3 m/s 771 mmHg 85%
23:00 +2°C° 0 mm 2 m/s 771 mmHg 88%

Demain, 15 Avril, Jeudi

Heure Température Précipitation Vent Pression Humidité
00:00 +1°C° 0 mm 2 m/s 771 mmHg 91%
01:00 +1°C° 0 mm 2 m/s 771 mmHg 92%
02:00 +1°C° 0 mm 2 m/s 771 mmHg 93%
03:00 +2°C° 0 mm 1 m/s 771 mmHg 95%
04:00 +2°C° 0.1 mm 1 m/s 771 mmHg 93%
05:00 +3°C° 0.1 mm 1 m/s 771 mmHg 92%
06:00 +2°C° 0.1 mm 0 m/s 771 mmHg 91%
07:00 +4°C° 0.1 mm 1 m/s 771 mmHg 89%
08:00 +4°C° 0.1 mm 1 m/s 771 mmHg 86%
09:00 +4°C° 0.1 mm 2 m/s 771 mmHg 83%
10:00 +5°C° 0 mm 2 m/s 771 mmHg 76%
11:00 +6°C° 0 mm 2 m/s 771 mmHg 69%
12:00 +7°C° 0 mm 2 m/s 771 mmHg 62%
13:00 +8°C° 0 mm 2 m/s 770 mmHg 57%
14:00 +8°C° 0 mm 3 m/s 770 mmHg 51%
15:00 +9°C° 0 mm 3 m/s 770 mmHg 46%
16:00 +8°C° 0 mm 3 m/s 770 mmHg 52%
17:00 +7°C° 0 mm 3 m/s 770 mmHg 57%
18:00 +7°C° 0 mm 3 m/s 770 mmHg 63%
19:00 +5°C° 0 mm 3 m/s 770 mmHg 66%
20:00 +3°C° 0 mm 3 m/s 770 mmHg 69%
21:00 +2°C° 0 mm 3 m/s 770 mmHg 71%
22:00 +2°C° 0 mm 3 m/s 770 mmHg 75%
23:00 +1°C° 0 mm 3 m/s 770 mmHg 78%

Après-demain, 16 Avril, Vendredi

Heure Température Précipitation Vent Pression Humidité
00:00 +1°C° 0 mm 3 m/s 770 mmHg 81%
01:00 0°C° 0 mm 3 m/s 770 mmHg 83%
02:00 0°C° 0 mm 3 m/s 770 mmHg 85%
03:00 0°C° 0 mm 3 m/s 770 mmHg 86%
04:00 0°C° 0 mm 3 m/s 770 mmHg 84%
05:00 +2°C° 0 mm 2 m/s 770 mmHg 81%
06:00 +2°C° 0 mm 2 m/s 770 mmHg 78%
07:00 +3°C° 0 mm 3 m/s 770 mmHg 70%
08:00 +5°C° 0 mm 3 m/s 770 mmHg 61%
09:00 +7°C° 0 mm 4 m/s 770 mmHg 53%
10:00 +8°C° 0 mm 4 m/s 769 mmHg 50%
11:00 +10°C° 0 mm 4 m/s 769 mmHg 47%
12:00 +11°C° 0 mm 4 m/s 769 mmHg 44%
13:00 +11°C° 0 mm 4 m/s 768 mmHg 45%
14:00 +11°C° 0 mm 4 m/s 768 mmHg 46%
15:00 +11°C° 0 mm 4 m/s 768 mmHg 48%
16:00 +10°C° 0 mm 4 m/s 768 mmHg 53%
17:00 +10°C° 0 mm 4 m/s 768 mmHg 58%
18:00 +8°C° 0 mm 4 m/s 768 mmHg 64%
19:00 +7°C° 0 mm 4 m/s 768 mmHg 66%
20:00 +5°C° 0 mm 4 m/s 768 mmHg 68%
21:00 +4°C° 0 mm 4 m/s 768 mmHg 71%
22:00 +3°C° 0 mm 4 m/s 768 mmHg 73%
23:00 +3°C° 0 mm 3 m/s 768 mmHg 76%

17 Avril, Samedi

Heure Température Précipitation Vent Pression Humidité
00:00 +2°C° 0 mm 3 m/s 768 mmHg 79%
01:00 +2°C° 0 mm 3 m/s 768 mmHg 80%
02:00 +1°C° 0 mm 3 m/s 768 mmHg 81%
03:00 +1°C° 0 mm 3 m/s 768 mmHg 82%
04:00 +1°C° 0 mm 3 m/s 768 mmHg 81%
05:00 +3°C° 0 mm 2 m/s 768 mmHg 80%
06:00 +3°C° 0 mm 2 m/s 768 mmHg 79%
07:00 +4°C° 0 mm 3 m/s 768 mmHg 71%
08:00 +7°C° 0 mm 3 m/s 768 mmHg 63%
09:00 +9°C° 0 mm 3 m/s 768 mmHg 54%
10:00 +10°C° 0 mm 3 m/s 767 mmHg 52%
11:00 +11°C° 0 mm 3 m/s 767 mmHg 49%
12:00 +12°C° 0 mm 3 m/s 767 mmHg 47%
13:00 +12°C° 0 mm 3 m/s 766 mmHg 46%
14:00 +13°C° 0 mm 4 m/s 766 mmHg 45%
15:00 +13°C° 0 mm 4 m/s 766 mmHg 44%
16:00 +12°C° 0 mm 3 m/s 765 mmHg 50%
17:00 +11°C° 0 mm 3 m/s 765 mmHg 56%
18:00 +9°C° 0 mm 3 m/s 765 mmHg 63%
19:00 +9°C° 0 mm 3 m/s 766 mmHg 65%
20:00 +8°C° 0 mm 3 m/s 766 mmHg 68%
21:00 +7°C° 0 mm 3 m/s 766 mmHg 70%
22:00 +5°C° 0 mm 3 m/s 766 mmHg 71%
23:00 +5°C° 0 mm 3 m/s 766 mmHg 71%

18 Avril, Dimanche

Heure Température Précipitation Vent Pression Humidité
00:00 +5°C° 0 mm 2 m/s 765 mmHg 72%
01:00 +5°C° 0 mm 2 m/s 765 mmHg 73%
02:00 +5°C° 0 mm 2 m/s 765 mmHg 74%
03:00 +5°C° 0 mm 2 m/s 765 mmHg 74%
04:00 +5°C° 0 mm 2 m/s 765 mmHg 74%
05:00 +6°C° 0 mm 1 m/s 765 mmHg 74%
06:00 +6°C° 0 mm 1 m/s 765 mmHg 74%
07:00 +8°C° 0 mm 1 m/s 765 mmHg 69%
08:00 +8°C° 0 mm 2 m/s 765 mmHg 64%
09:00 +9°C° 0 mm 2 m/s 765 mmHg 59%
10:00 +10°C° 0 mm 2 m/s 765 mmHg 56%
11:00 +12°C° 0 mm 2 m/s 764 mmHg 52%
12:00 +13°C° 0 mm 2 m/s 764 mmHg 48%
13:00 +13°C° 0 mm 2 m/s 764 mmHg 49%
14:00 +13°C° 0 mm 2 m/s 763 mmHg 50%
15:00 +12°C° 0 mm 3 m/s 763 mmHg 51%
16:00 +11°C° 0.1 mm 3 m/s 763 mmHg 59%
17:00 +10°C° 0.1 mm 3 m/s 763 mmHg 66%
18:00 +10°C° 0.1 mm 3 m/s 763 mmHg 73%
19:00 +9°C° 0 mm 2 m/s 763 mmHg 77%
20:00 +8°C° 0 mm 2 m/s 764 mmHg 82%
21:00 +7°C° 0 mm 2 m/s 764 mmHg 86%
22:00 +7°C° 0 mm 2 m/s 764 mmHg 87%
23:00 +7°C° 0 mm 2 m/s 763 mmHg 87%

19 Avril, Lundi

Heure Température Précipitation Vent Pression Humidité
00:00 +8°C° 0 mm 1 m/s 763 mmHg 88%
01:00 +8°C° 0 mm 1 m/s 763 mmHg 88%
02:00 +7°C° 0 mm 1 m/s 763 mmHg 89%
03:00 +7°C° 0 mm 1 m/s 763 mmHg 89%
04:00 +7°C° 0 mm 1 m/s 763 mmHg 88%
05:00 +8°C° 0 mm 1 m/s 763 mmHg 87%
06:00 +8°C° 0 mm 1 m/s 762 mmHg 86%
07:00 +9°C° 0 mm 1 m/s 762 mmHg 81%
08:00 +10°C° 0 mm 1 m/s 762 mmHg 77%
09:00 +10°C° 0 mm 2 m/s 762 mmHg 72%
10:00 +10°C° 0.1 mm 2 m/s 762 mmHg 68%
11:00 +12°C° 0.1 mm 2 m/s 762 mmHg 64%
12:00 +13°C° 0.1 mm 2 m/s 761 mmHg 60%
13:00 +13°C° 0.1 mm 2 m/s 761 mmHg 59%
14:00 +13°C° 0.1 mm 2 m/s 760 mmHg 57%
15:00 +14°C° 0.1 mm 2 m/s 760 mmHg 55%
16:00 +13°C° 0 mm 2 m/s 760 mmHg 59%
17:00 +13°C° 0 mm 2 m/s 759 mmHg 63%
18:00 +12°C° 0 mm 1 m/s 759 mmHg 67%
19:00 +11°C° 0 mm 1 m/s 759 mmHg 69%
20:00 +10°C° 0 mm 1 m/s 759 mmHg 71%
21:00 +9°C° 0 mm 1 m/s 759 mmHg 73%
22:00 +9°C° 0 mm 1 m/s 759 mmHg 76%
23:00 +8°C° 0 mm 1 m/s 759 mmHg 78%
Voir plus

Nous avons besoin de votre consentement

Meteoprog et ses fournisseurs de services peuvent stocker et accéder à des données personnelles telles que des cookies, des identifiants d'appareils ou d'autres technologies similaires sur votre appareil et traiter ces données pour personnaliser le contenu et les publicités, ainsi que pour fournir des fonctionnalités de médias sociaux et analyser le trafic.

  • Stocker et/ou accéder à des informations sur votre appareil

    Des cookies, des identifiants d'appareils ou d'autres informations peuvent être stockés ou accessibles sur votre appareil aux fins indiquées ci-dessus.

  • Annonces et contenus personnalisés, mesure des annonces et des contenus, connaissance de l'audience et développement de produits

    Les annonces et le contenu peuvent être personnalisés en fonction d'un profil. D'autres données peuvent être ajoutées pour mieux personnaliser les annonces et le contenu. Les performances des publicités et du contenu peuvent être mesurées. Il est possible d'obtenir des informations sur le public qui a vu les publicités et le contenu. Ces données peuvent être utilisées pour développer ou améliorer l'expérience de l'utilisateur, les systèmes et les logiciels.

En cliquant sur "J'accepte", vous autorisez l'utilisation de cookies, des identifiants d'appareils, des balises web ou d'autres technologies similaires. Vos paramètres peuvent être modifiés dans le navigateur de votre appareil.

Dans certains cas, des intérêts légitimes peuvent être invoqués plutôt qu'un consentement. Vous pouvez en savoir plus à ce sujet dans notre Politique de confidentialité et de cookies.